Arca — PDHT — position and weather

sailwx.info

Track history (hours):
 
Tides and Currents Weather Stations Pressure Air Temp Water Temp Dewpoint Dewpoint Depression Visibility Wind Speed Wind Dir Waves Ship Positions

Oceanographic research ship Arca (Netherlands)

Detailed information on ship capabilities available from University of Delaware's Ocean Information Center.

Last reported at 2017-Oct-17 03:06 UTC. Time now 2017-Oct-17 15:10 UTC.
Position N 53°38' E 006°16'.

Length 83 m; draft 5 m.

Type: Law enforcement. MMSI: 244454000.

Date/timePositionNaut miles runAvg speedWind from/ knotsBaromVisibWave heightAir tempDewpointWater temp
2017-Oct-17 03:06N 53°38' E 006°16'2 4.6
2017-Oct-17 02:39N 53°38' E 006°19'3 5.5
2017-Oct-17 02:10N 53°38' E 006°15'3 7.6
2017-Oct-17 01:46N 53°38' E 006°20'3 7.4
2017-Oct-17 01:19N 53°38' E 006°14'4 7.7
2017-Oct-17 00:52N 53°38' E 006°20'3 6.9
2017-Oct-17 00:23N 53°38' E 006°15'0 0.1
2017-Oct-16 23:36N 53°38' E 006°15'3 6.9
2017-Oct-16 23:10N 53°38' E 006°20'2 7.7
2017-Oct-16 22:51N 53°38' E 006°16'16 3.0
2017-Oct-16 17:38N 53°33' E 005°50'1013.9
2017-Oct-16 16:54N 53°31' E 005°33'613.6
2017-Oct-16 16:29N 53°30' E 005°24'714.1
2017-Oct-16 16:00N 53°28' E 005°14'714.2
2017-Oct-16 15:30N 53°25' E 005°02'713.8
2017-Oct-16 15:00N 53°20' E 004°55'1414.1
2017-Oct-16 14:00N 53°08' E 004°41'714.9
2017-Oct-16 13:30N 53°02' E 004°35'815.4
2017-Oct-16 13:01N 52°54' E 004°33'714.8
2017-Oct-16 12:30N 52°47' E 004°32'714.3
2017-Oct-16 12:00N 52°40' E 004°30'713.9
2017-Oct-16 11:30N 52°33' E 004°28'713.7
2017-Oct-16 11:00N 52°26' E 004°26'713.6
2017-Oct-16 10:30N 52°20' E 004°22'713.4
2017-Oct-16 10:00N 52°13' E 004°18'611.1
2017-Oct-16 09:30N 52°09' E 004°13'3 6.5
2017-Oct-16 09:00N 52°06' E 004°15'0 0.6
2017-Oct-16 08:29N 52°06' E 004°16'0 0.0
2017-Oct-16 07:59N 52°06' E 004°16'0 0.0
2017-Oct-16 07:29N 52°06' E 004°16'0 0.0
2017-Oct-16 06:59N 52°06' E 004°16'0 0.0
2017-Oct-16 06:29N 52°06' E 004°16'0 0.0
2017-Oct-16 06:00N 52°06' E 004°16'0 0.0
2017-Oct-16 05:30N 52°06' E 004°16'0 0.0
2017-Oct-16 05:00N 52°06' E 004°16'0 0.0
2017-Oct-16 04:30N 52°06' E 004°16'0 0.0
2017-Oct-16 04:00N 52°06' E 004°16'0 0.0
2017-Oct-16 03:30N 52°06' E 004°16'0 0.0
2017-Oct-16 03:00N 52°06' E 004°16'0 0.0
2017-Oct-16 02:30N 52°06' E 004°16'0 0.0
2017-Oct-16 02:00N 52°06' E 004°16'0 0.0
2017-Oct-16 01:30N 52°06' E 004°16'0 0.0
2017-Oct-16 01:00N 52°06' E 004°16'0 0.0
2017-Oct-16 00:30N 52°06' E 004°16'0 0.0
2017-Oct-16 00:00N 52°06' E 004°16'0 0.0
2017-Oct-15 23:30N 52°06' E 004°16'0 0.0
2017-Oct-15 23:00N 52°06' E 004°16'0 0.0
2017-Oct-15 22:31N 52°06' E 004°16'0 0.0
2017-Oct-15 22:00N 52°06' E 004°16'0 0.0
2017-Oct-15 21:30N 52°06' E 004°16'0 0.0
2017-Oct-15 21:00N 52°06' E 004°16'0 0.0
2017-Oct-15 20:30N 52°06' E 004°16'0 0.0
2017-Oct-15 20:00N 52°06' E 004°16'0 0.0
2017-Oct-15 19:30N 52°06' E 004°16'0 0.0
2017-Oct-15 19:01N 52°06' E 004°16'0 0.0
2017-Oct-15 18:30N 52°06' E 004°16'0 0.0
2017-Oct-15 18:00N 52°06' E 004°16'0 0.0
2017-Oct-15 17:30N 52°06' E 004°16'0 0.0
2017-Oct-15 17:00N 52°06' E 004°16'0 0.0
2017-Oct-15 16:30N 52°06' E 004°16'0 0.0
2017-Oct-15 16:00N 52°06' E 004°16'0 0.0
2017-Oct-15 15:30N 52°06' E 004°16'0 0.0
2017-Oct-15 15:00N 52°06' E 004°16'0 0.0
2017-Oct-15 14:00N 52°06' E 004°16'0 0.0
2017-Oct-15 13:30N 52°06' E 004°16'0 0.0
2017-Oct-15 13:00N 52°06' E 004°16'0 0.0
2017-Oct-15 12:30N 52°06' E 004°16'0 0.0
2017-Oct-15 12:00N 52°06' E 004°16'0 0.0
2017-Oct-15 11:30N 52°06' E 004°16'0 0.0
2017-Oct-15 11:00N 52°06' E 004°16'0 0.0
2017-Oct-15 10:30N 52°06' E 004°16'0 0.0
2017-Oct-15 10:01N 52°06' E 004°16'0 0.0
2017-Oct-15 09:30N 52°06' E 004°16'0 0.0
2017-Oct-15 09:00N 52°06' E 004°16'0 0.0
2017-Oct-15 08:30N 52°06' E 004°16'0 0.0
2017-Oct-15 08:00N 52°06' E 004°16'0 0.0
2017-Oct-15 07:30N 52°06' E 004°16'0 0.0
2017-Oct-15 07:00N 52°06' E 004°16'0 0.0
2017-Oct-15 06:30N 52°06' E 004°16'0 0.0
2017-Oct-15 06:00N 52°06' E 004°16'0 0.0
2017-Oct-15 05:30N 52°06' E 004°16'0 0.0
2017-Oct-15 05:00N 52°06' E 004°16'0 0.0
2017-Oct-15 04:30N 52°06' E 004°16'0 0.0
2017-Oct-15 04:00N 52°06' E 004°16'0 0.0
2017-Oct-15 03:31N 52°06' E 004°16'0 0.0
2017-Oct-15 03:00N 52°06' E 004°16'0 0.0
2017-Oct-15 02:30N 52°06' E 004°16'0 0.0
2017-Oct-15 02:00N 52°06' E 004°16'0 0.0
2017-Oct-15 01:30N 52°06' E 004°16'0 0.0
2017-Oct-15 01:00N 52°06' E 004°16'0 0.0
2017-Oct-15 00:30N 52°06' E 004°16'0 0.0
2017-Oct-15 00:00N 52°06' E 004°16'0 0.0
2017-Oct-14 23:30N 52°06' E 004°16'0 0.0
2017-Oct-14 23:00N 52°06' E 004°16'0 0.0
2017-Oct-14 22:30N 52°06' E 004°16'0 0.0
2017-Oct-14 22:00N 52°06' E 004°16'0 0.0
2017-Oct-14 21:30N 52°06' E 004°16'0 0.0
2017-Oct-14 21:00N 52°06' E 004°16'0 0.0
2017-Oct-14 20:30N 52°06' E 004°16'0 0.0
2017-Oct-14 20:00N 52°06' E 004°16'0 0.0
2017-Oct-14 19:30N 52°06' E 004°16'0 0.0
2017-Oct-14 19:00N 52°06' E 004°16'0 0.0
2017-Oct-14 18:30N 52°06' E 004°16'0 0.0
2017-Oct-14 18:00N 52°06' E 004°16'0 0.0
2017-Oct-14 17:30N 52°06' E 004°16'0 0.0
2017-Oct-14 17:00N 52°06' E 004°16'0 0.0
2017-Oct-14 16:30N 52°06' E 004°16'0 0.0
2017-Oct-14 16:00N 52°06' E 004°16'0 0.0
2017-Oct-14 15:30N 52°06' E 004°16'0 0.0
2017-Oct-14 15:00N 52°06' E 004°16'0 0.0
2017-Oct-14 14:30N 52°06' E 004°16'0 0.0
2017-Oct-14 14:00N 52°06' E 004°16'0 0.0
2017-Oct-14 13:30N 52°06' E 004°16'0 0.0
2017-Oct-14 13:00N 52°06' E 004°16'0 0.0
2017-Oct-14 12:30N 52°06' E 004°16'0 0.0
2017-Oct-14 12:00N 52°06' E 004°16'0 0.0
2017-Oct-14 11:30N 52°06' E 004°16'0 0.0
2017-Oct-14 11:00N 52°06' E 004°16'0 0.0
2017-Oct-14 10:30N 52°06' E 004°16'0 0.0
2017-Oct-14 10:00N 52°06' E 004°16'0 0.0
2017-Oct-14 09:30N 52°06' E 004°16'0 0.0
2017-Oct-14 09:00N 52°06' E 004°16'0 0.0
2017-Oct-14 08:30N 52°06' E 004°16'0 0.0
2017-Oct-14 08:00N 52°06' E 004°16'0 0.0
2017-Oct-14 07:30N 52°06' E 004°16'0 0.0
2017-Oct-14 07:00N 52°06' E 004°16'0 0.0
2017-Oct-14 06:30N 52°06' E 004°16'0 0.0
2017-Oct-14 06:00N 52°06' E 004°16'0 0.0
2017-Oct-14 05:30N 52°06' E 004°16'0 0.0
2017-Oct-14 05:00N 52°06' E 004°16'0 0.0
2017-Oct-14 04:31N 52°06' E 004°16'0 0.0
2017-Oct-14 04:00N 52°06' E 004°16'0 0.0
2017-Oct-14 03:30N 52°06' E 004°16'0 0.0
2017-Oct-14 03:00N 52°06' E 004°16'0 0.0
2017-Oct-14 02:30N 52°06' E 004°16'0 0.0
2017-Oct-14 02:00N 52°06' E 004°16'0 0.0
2017-Oct-14 01:30N 52°06' E 004°16'0 0.0
2017-Oct-14 01:00N 52°06' E 004°16'0 0.0
2017-Oct-14 00:30N 52°06' E 004°16'0 0.0
2017-Oct-14 00:00N 52°06' E 004°16'0 0.0
2017-Oct-13 23:30N 52°06' E 004°16'0 0.0
2017-Oct-13 23:00N 52°06' E 004°16'0 0.0
2017-Oct-13 22:30N 52°06' E 004°16'0 0.0
2017-Oct-13 22:00N 52°06' E 004°16'0 0.0
2017-Oct-13 21:30N 52°06' E 004°16'0 0.0
2017-Oct-13 21:00N 52°06' E 004°16'0 0.0
2017-Oct-13 20:30N 52°06' E 004°16'0 0.0
2017-Oct-13 20:00N 52°06' E 004°16'0 0.0
2017-Oct-13 19:30N 52°06' E 004°16'0 0.0
2017-Oct-13 19:00N 52°06' E 004°16'0 0.0
2017-Oct-13 18:30N 52°06' E 004°16'0 0.0
2017-Oct-13 18:00N 52°06' E 004°16'0 0.0
2017-Oct-13 17:30N 52°06' E 004°16'0 0.0
2017-Oct-13 17:00N 52°06' E 004°16'0 0.0
2017-Oct-13 16:30N 52°06' E 004°16'0 0.0
2017-Oct-13 16:00N 52°06' E 004°16'0 0.0
2017-Oct-13 15:30N 52°06' E 004°16'0 0.0
2017-Oct-13 15:00N 52°06' E 004°16'0 0.0
2017-Oct-13 14:30N 52°06' E 004°16'0 0.0
2017-Oct-13 14:00N 52°06' E 004°16'0 0.0
2017-Oct-13 13:30N 52°06' E 004°16'0 0.0
2017-Oct-13 13:00N 52°06' E 004°16'0 0.0
2017-Oct-13 12:30N 52°06' E 004°16'0 0.0
2017-Oct-13 12:00N 52°06' E 004°16'0 0.0
2017-Oct-13 11:30N 52°06' E 004°16'0 0.0
2017-Oct-13 11:00N 52°06' E 004°16'0 0.0
2017-Oct-13 10:30N 52°06' E 004°16'0 0.0
2017-Oct-13 10:00N 52°06' E 004°16'0 0.1
2017-Oct-13 09:30N 52°06' E 004°16'4 8.5
2017-Oct-13 09:00N 52°09' E 004°10'1 1.3
2017-Oct-13 08:30N 52°08' E 004°10'1 1.5
2017-Oct-13 08:00N 52°09' E 004°10'0 0.6
2017-Oct-13 07:31N 52°09' E 004°10'3 6.5
2017-Oct-13 07:01N 52°12' E 004°12'510.7
2017-Oct-13 06:30N 52°18' E 004°15'510.9
2017-Oct-13 06:00N 52°23' E 004°18'510.6
2017-Oct-13 05:30N 52°28' E 004°20'1 2.1
2017-Oct-13 05:00N 52°29' E 004°20'2 1.9
2017-Oct-13 03:59N 52°31' E 004°21'0 0.0
2017-Oct-13 03:29N 52°31' E 004°21'0 0.0
2017-Oct-13 02:59N 52°31' E 004°21'0 0.0
2017-Oct-13 02:29N 52°31' E 004°21'0 0.0
2017-Oct-13 01:59N 52°31' E 004°21'0 0.0
2017-Oct-13 01:29N 52°31' E 004°21'0 0.0
2017-Oct-13 00:59N 52°31' E 004°21'0 0.0
2017-Oct-13 00:29N 52°31' E 004°21'0 0.0
2017-Oct-12 23:59N 52°31' E 004°21'0 0.0
2017-Oct-12 23:29N 52°31' E 004°21'0 0.0
2017-Oct-12 22:59N 52°31' E 004°21'0 0.0
2017-Oct-12 22:29N 52°31' E 004°21'0 0.0
2017-Oct-12 21:59N 52°31' E 004°21'0 0.0
2017-Oct-12 21:29N 52°31' E 004°21'0 0.0
2017-Oct-12 20:59N 52°31' E 004°21'0 0.0
2017-Oct-12 20:29N 52°31' E 004°21'0 0.0
2017-Oct-12 19:59N 52°31' E 004°21'2 4.2
2017-Oct-12 19:30N 52°30' E 004°24'4 7.8
2017-Oct-12 19:01N 52°28' E 004°30'0 0.2
2017-Oct-12 18:30N 52°28' E 004°30'2 3.6
2017-Oct-12 18:00N 52°29' E 004°28'1 1.5
2017-Oct-12 17:30N 52°28' E 004°28'0 0.3
2017-Oct-12 17:00N 52°28' E 004°29'3 5.5
2017-Oct-12 16:30N 52°28' E 004°33'1 2.5
2017-Oct-12 16:00N 52°28' E 004°31'2 3.0
2017-Oct-12 15:31N 52°28' E 004°29'1 2.9
2017-Oct-12 15:01N 52°28' E 004°31'1 2.2
2017-Oct-12 14:30N 52°28' E 004°29'1 1.8
2017-Oct-12 14:01N 52°28' E 004°31'1 1.3
2017-Oct-12 13:30N 52°28' E 004°30'0 0.9
2017-Oct-12 13:00N 52°28' E 004°30'0 0.5
2017-Oct-12 12:31N 52°28' E 004°30'0 0.3
2017-Oct-12 12:00N 52°28' E 004°30'0 0.4
2017-Oct-12 11:30N 52°28' E 004°30'0 0.6
2017-Oct-12 11:01N 52°28' E 004°30'1 2.7
2017-Oct-12 10:31N 52°28' E 004°28'3 5.3
2017-Oct-12 10:00N 52°29' E 004°24'3 5.1
2017-Oct-12 09:31N 52°29' E 004°20'3 6.4
2017-Oct-12 09:00N 52°28' E 004°25'2 3.5
2017-Oct-12 08:31N 52°27' E 004°27'1 2.2
2017-Oct-12 08:01N 52°26' E 004°27'510.8
2017-Oct-12 07:31N 52°21' E 004°25'611.9
2017-Oct-12 07:01N 52°15' E 004°21'612.1
2017-Oct-12 06:31N 52°10' E 004°16'4 8.4
2017-Oct-12 06:01N 52°06' E 004°16'0 0.0
2017-Oct-12 05:28N 52°06' E 004°16'0 0.0
2017-Oct-12 04:58N 52°06' E 004°16'0 0.0
2017-Oct-12 04:28N 52°06' E 004°16'0 0.0
2017-Oct-12 03:58N 52°06' E 004°16'0 0.0
2017-Oct-12 03:28N 52°06' E 004°16'0 0.0
2017-Oct-12 02:58N 52°06' E 004°16'0 0.0
2017-Oct-12 02:28N 52°06' E 004°16'0 0.0
2017-Oct-12 01:55N 52°06' E 004°16'0 0.0
2017-Oct-12 01:28N 52°06' E 004°16'0 0.0
2017-Oct-12 00:58N 52°06' E 004°16'0 0.0
2017-Oct-12 00:28N 52°06' E 004°16'0 0.0
2017-Oct-11 23:58N 52°06' E 004°16'0 0.0
2017-Oct-11 23:25N 52°06' E 004°16'0 0.0
2017-Oct-11 22:58N 52°06' E 004°16'0 0.0
2017-Oct-11 22:22N 52°06' E 004°16'0 0.0
2017-Oct-11 21:58N 52°06' E 004°16'0 0.0
2017-Oct-11 21:28N 52°06' E 004°16'0 0.0
2017-Oct-11 20:58N 52°06' E 004°16'0 0.0
2017-Oct-11 20:28N 52°06' E 004°16'0 0.0
2017-Oct-11 19:58N 52°06' E 004°16'0 0.0
2017-Oct-11 19:25N 52°06' E 004°16'0 0.0
2017-Oct-11 18:58N 52°06' E 004°16'0 0.0
2017-Oct-11 18:28N 52°06' E 004°16'0 0.0
2017-Oct-11 17:58N 52°06' E 004°16'0 0.0
2017-Oct-11 17:28N 52°06' E 004°16'0 0.0
2017-Oct-11 16:58N 52°06' E 004°16'12 0.7
2017-Oct-11 00:01N 52°01' E 003°57'4 7.7
2017-Oct-10 23:31N 51°59' E 004°03'3 6.8
2017-Oct-10 23:00N 52°01' E 003°58'2 4.5
2017-Oct-10 22:30N 51°60' E 004°01'1 2.2
2017-Oct-10 22:00N 52°00' E 003°60'1 1.7
2017-Oct-10 21:30N 51°60' E 004°01'1 1.8
2017-Oct-10 21:00N 52°00' E 003°60'1 1.4
2017-Oct-10 20:30N 52°00' E 004°01'0 0.9
2017-Oct-10 20:00N 51°60' E 004°01'2 3.1
2017-Oct-10 19:30N 52°01' E 003°59'1 2.9
2017-Oct-10 19:00N 51°60' E 004°01'1 2.8
2017-Oct-10 18:30N 52°01' E 003°59'2 3.2
2017-Oct-10 18:00N 51°60' E 004°01'4 7.3
2017-Oct-10 17:30N 52°01' E 003°56'3 5.2
2017-Oct-10 17:00N 52°00' E 003°60'1 1.7
2017-Oct-10 16:30N 51°60' E 004°01'1 2.7
2017-Oct-10 16:01N 52°01' E 003°59'2 3.9
2017-Oct-10 15:30N 51°60' E 004°02'1 1.9
2017-Oct-10 15:00N 51°60' E 004°00'1 0.7
2017-Oct-10 14:00N 51°60' E 004°01'2 3.8
2017-Oct-10 13:30N 52°01' E 003°59'2 3.6
2017-Oct-10 13:00N 51°60' E 004°01'2 3.8
2017-Oct-10 12:30N 52°01' E 003°59'2 3.8
2017-Oct-10 12:00N 51°60' E 004°01'2 4.3
2017-Oct-10 11:30N 52°01' E 003°58'3 5.2
2017-Oct-10 11:00N 51°59' E 004°02'3 6.1
2017-Oct-10 10:31N 52°01' E 003°57'4 7.1
2017-Oct-10 10:00N 51°59' E 004°03'4 7.3
2017-Oct-10 09:30N 52°01' E 003°57'4 7.0
2017-Oct-10 09:01N 51°59' E 004°02'3 6.8
2017-Oct-10 08:31N 52°01' E 003°57'3 6.7
2017-Oct-10 08:00N 52°01' E 004°03'511.0
2017-Oct-10 07:30N 52°06' E 004°08'4 8.8
2017-Oct-10 07:01N 52°09' E 004°13'1 2.1
2017-Oct-10 06:30N 52°08' E 004°13'3 5.4
2017-Oct-10 05:59N 52°06' E 004°16'0 0.0
2017-Oct-10 05:26N 52°06' E 004°16'0 0.0
2017-Oct-10 04:59N 52°06' E 004°16'0 0.0
2017-Oct-10 04:26N 52°06' E 004°16'0 0.0
2017-Oct-10 03:59N 52°06' E 004°16'0 0.0
2017-Oct-10 03:29N 52°06' E 004°16'0 0.0
2017-Oct-10 02:59N 52°06' E 004°16'0 0.0
2017-Oct-10 02:29N 52°06' E 004°16'0 0.0
2017-Oct-10 01:59N 52°06' E 004°16'0 0.0
2017-Oct-10 01:29N 52°06' E 004°16'0 0.0
2017-Oct-10 00:59N 52°06' E 004°16'0 0.0
2017-Oct-10 00:29N 52°06' E 004°16'0 0.0
2017-Oct-09 23:59N 52°06' E 004°16'0 0.0
2017-Oct-09 23:29N 52°06' E 004°16'0 0.0
2017-Oct-09 22:59N 52°06' E 004°16'0 0.0
2017-Oct-09 22:29N 52°06' E 004°16'0 0.0
2017-Oct-09 21:59N 52°06' E 004°16'0 0.0
2017-Oct-09 21:26N 52°06' E 004°16'0 0.0
2017-Oct-09 20:56N 52°06' E 004°16'0 0.0
2017-Oct-09 20:29N 52°06' E 004°16'0 0.0
2017-Oct-09 19:56N 52°06' E 004°16'0 0.0
2017-Oct-09 19:29N 52°06' E 004°16'0 0.0
2017-Oct-09 18:56N 52°06' E 004°16'0 0.0
2017-Oct-09 18:26N 52°06' E 004°16'0 0.0
2017-Oct-09 17:59N 52°06' E 004°16'0 0.0
2017-Oct-09 17:29N 52°06' E 004°16'0 0.0
2017-Oct-09 16:59N 52°06' E 004°16'0 0.0
2017-Oct-09 16:29N 52°06' E 004°16'0 0.0
2017-Oct-09 15:59N 52°06' E 004°16'0 0.0
2017-Oct-09 15:29N 52°06' E 004°16'0 0.0
2017-Oct-09 14:59N 52°06' E 004°16'0 0.0
2017-Oct-09 14:29N 52°06' E 004°16'0 0.0
2017-Oct-09 13:59N 52°06' E 004°16'0 0.0
2017-Oct-09 13:26N 52°06' E 004°16'0 0.0
2017-Oct-09 12:59N 52°06' E 004°16'0 0.0
2017-Oct-09 12:26N 52°06' E 004°16'1 2.7
2017-Oct-09 12:01N 52°07' E 004°14'611.1
2017-Oct-09 11:30N 52°05' E 004°05'510.8
2017-Oct-09 11:00N 52°03' E 003°57'3 6.6
2017-Oct-09 10:30N 52°00' E 004°01'613.0
2017-Oct-09 10:01N 51°57' E 004°10'713.4
2017-Oct-09 09:30N 51°54' E 004°19'2 4.3
2017-Oct-09 08:59N 51°54' E 004°23'0 0.0
2017-Oct-09 08:29N 51°54' E 004°23'0 0.0
2017-Oct-09 07:59N 51°54' E 004°23'0 0.0
2017-Oct-09 07:29N 51°54' E 004°23'0 0.0
2017-Oct-09 06:59N 51°54' E 004°23'0 0.0
2017-Oct-09 06:29N 51°54' E 004°23'0 0.0
2017-Oct-09 05:59N 51°54' E 004°23'0 0.0
2017-Oct-09 05:29N 51°54' E 004°23'0 0.0
2017-Oct-09 04:59N 51°54' E 004°23'0 0.0
2017-Oct-09 04:29N 51°54' E 004°23'0 0.0
2017-Oct-09 03:59N 51°54' E 004°23'0 0.0
2017-Oct-09 03:29N 51°54' E 004°23'0 0.0
2017-Oct-09 02:59N 51°54' E 004°23'0 0.0
2017-Oct-09 02:29N 51°54' E 004°23'0 0.0
2017-Oct-09 01:59N 51°54' E 004°23'0 0.0
2017-Oct-09 01:29N 51°54' E 004°23'0 0.0
2017-Oct-09 00:59N 51°54' E 004°23'0 0.0
2017-Oct-09 00:29N 51°54' E 004°23'0 0.0
2017-Oct-08 23:59N 51°54' E 004°23'0 0.0
2017-Oct-08 23:29N 51°54' E 004°23'0 0.0
2017-Oct-08 22:59N 51°54' E 004°23'0 0.0
2017-Oct-08 22:29N 51°54' E 004°23'0 0.0
2017-Oct-08 21:59N 51°54' E 004°23'0 0.0
2017-Oct-08 21:29N 51°54' E 004°23'0 0.0
2017-Oct-08 20:56N 51°54' E 004°23'0 0.0
2017-Oct-08 20:29N 51°54' E 004°23'0 0.0
2017-Oct-08 19:59N 51°54' E 004°23'0 0.0
2017-Oct-08 19:29N 51°54' E 004°23'0 0.0
2017-Oct-08 18:59N 51°54' E 004°23'0 0.0
2017-Oct-08 18:29N 51°54' E 004°23'0 0.0
2017-Oct-08 17:59N 51°54' E 004°23'0 0.0
2017-Oct-08 17:29N 51°54' E 004°23'0 0.0
2017-Oct-08 16:59N 51°54' E 004°23'0 0.0
2017-Oct-08 16:29N 51°54' E 004°23'0 0.0
2017-Oct-08 15:59N 51°54' E 004°23'0 0.0
2017-Oct-08 15:29N 51°54' E 004°23'0 0.0
2017-Oct-08 14:59N 51°54' E 004°23'0 0.0
2017-Oct-08 14:29N 51°54' E 004°23'0 0.0
2017-Oct-08 13:59N 51°54' E 004°23'0 0.0
2017-Oct-08 13:29N 51°54' E 004°23'0 0.0
2017-Oct-08 12:59N 51°54' E 004°23'0 0.0
2017-Oct-08 12:29N 51°54' E 004°23'0 0.0
2017-Oct-08 11:59N 51°54' E 004°23'0 0.0
2017-Oct-08 11:29N 51°54' E 004°23'0 0.0
2017-Oct-08 10:59N 51°54' E 004°23'0 0.0
2017-Oct-08 10:29N 51°54' E 004°23'0 0.0
2017-Oct-08 09:59N 51°54' E 004°23'0 0.0
2017-Oct-08 09:29N 51°54' E 004°23'0 0.0
2017-Oct-08 08:59N 51°54' E 004°23'0 0.0
2017-Oct-08 08:29N 51°54' E 004°23'0 0.0
2017-Oct-08 07:59N 51°54' E 004°23'0 0.0
2017-Oct-08 07:29N 51°54' E 004°23'0 0.0
2017-Oct-08 06:59N 51°54' E 004°23'0 0.0
2017-Oct-08 06:29N 51°54' E 004°23'0 0.0
2017-Oct-08 05:59N 51°54' E 004°23'0 0.0
2017-Oct-08 05:29N 51°54' E 004°23'0 0.0
2017-Oct-08 04:59N 51°54' E 004°23'0 0.0
2017-Oct-08 04:29N 51°54' E 004°23'0 0.0
2017-Oct-08 03:59N 51°54' E 004°23'0 0.0
2017-Oct-08 03:29N 51°54' E 004°23'0 0.0
2017-Oct-08 02:59N 51°54' E 004°23'0 0.0
2017-Oct-08 02:29N 51°54' E 004°23'0 0.0
2017-Oct-08 01:59N 51°54' E 004°23'0 0.0
2017-Oct-08 01:29N 51°54' E 004°23'0 0.0
2017-Oct-08 00:59N 51°54' E 004°23'0 0.0
2017-Oct-08 00:29N 51°54' E 004°23'0 0.0
2017-Oct-07 23:59N 51°54' E 004°23'0 0.0
2017-Oct-07 23:29N 51°54' E 004°23'0 0.0
2017-Oct-07 22:59N 51°54' E 004°23'0 0.0
2017-Oct-07 22:29N 51°54' E 004°23'0 0.0
2017-Oct-07 21:59N 51°54' E 004°23'0 0.0
2017-Oct-07 21:29N 51°54' E 004°23'0 0.0
2017-Oct-07 20:56N 51°54' E 004°23'0 0.0
2017-Oct-07 20:29N 51°54' E 004°23'0 0.0
2017-Oct-07 19:59N 51°54' E 004°23'0 0.0
2017-Oct-07 19:29N 51°54' E 004°23'0 0.0
2017-Oct-07 18:59N 51°54' E 004°23'0 0.0
2017-Oct-07 18:29N 51°54' E 004°23'0 0.0
2017-Oct-07 17:59N 51°54' E 004°23'0 0.0
2017-Oct-07 17:29N 51°54' E 004°23'0 0.0
2017-Oct-07 16:59N 51°54' E 004°23'0 0.0
2017-Oct-07 16:29N 51°54' E 004°23'0 0.0
2017-Oct-07 15:59N 51°54' E 004°23'0 0.0
2017-Oct-07 15:29N 51°54' E 004°23'0 0.0
2017-Oct-07 14:59N 51°54' E 004°23'0 0.0
2017-Oct-07 14:26N 51°54' E 004°23'0 0.0
2017-Oct-07 13:59N 51°54' E 004°23'0 0.0
2017-Oct-07 13:29N 51°54' E 004°23'0 0.0
2017-Oct-07 12:59N 51°54' E 004°23'0 0.0
2017-Oct-07 12:29N 51°54' E 004°23'0 0.0
2017-Oct-07 11:59N 51°54' E 004°23'0 0.0
2017-Oct-07 11:26N 51°54' E 004°23'0 0.0
2017-Oct-07 10:59N 51°54' E 004°23'0 0.0
2017-Oct-07 10:29N 51°54' E 004°23'0 0.0
2017-Oct-07 09:59N 51°54' E 004°23'0 0.0
2017-Oct-07 09:29N 51°54' E 004°23'0 0.0
2017-Oct-07 08:59N 51°54' E 004°23'0 0.0
2017-Oct-07 08:29N 51°54' E 004°23'0 0.0
2017-Oct-07 07:59N 51°54' E 004°23'0 0.0
2017-Oct-07 07:29N 51°54' E 004°23'0 0.0
2017-Oct-07 06:59N 51°54' E 004°23'0 0.0
2017-Oct-07 06:29N 51°54' E 004°23'0 0.0
2017-Oct-07 05:59N 51°54' E 004°23'0 0.0
2017-Oct-07 05:29N 51°54' E 004°23'0 0.0
2017-Oct-07 04:59N 51°54' E 004°23'0 0.0
2017-Oct-07 04:29N 51°54' E 004°23'0 0.0
2017-Oct-07 03:59N 51°54' E 004°23'0 0.0
2017-Oct-07 03:29N 51°54' E 004°23'  
Track history (hours):
 
Tides and Currents Weather Stations Pressure Air Temp Water Temp Dewpoint Dewpoint Depression Visibility Wind Speed Wind Dir Waves Ship Positions

Oceanographic research ship Arca (Netherlands)

Detailed information on ship capabilities available from University of Delaware's Ocean Information Center.

Last reported at 2017-Oct-17 03:06 UTC. Time now 2017-Oct-17 15:10 UTC.
Position N 53°38' E 006°16'.

Length 83 m; draft 5 m.

Type: Law enforcement. MMSI: 244454000.

Date/timePositionNaut miles runAvg speedWind from/ knotsBaromVisibWave heightAir tempDewpointWater temp
2017-Oct-17 03:06N 53°38' E 006°16'2 4.6
2017-Oct-17 02:39N 53°38' E 006°19'3 5.5
2017-Oct-17 02:10N 53°38' E 006°15'3 7.6
2017-Oct-17 01:46N 53°38' E 006°20'3 7.4
2017-Oct-17 01:19N 53°38' E 006°14'4 7.7
2017-Oct-17 00:52N 53°38' E 006°20'3 6.9
2017-Oct-17 00:23N 53°38' E 006°15'0 0.1
2017-Oct-16 23:36N 53°38' E 006°15'3 6.9
2017-Oct-16 23:10N 53°38' E 006°20'2 7.7
2017-Oct-16 22:51N 53°38' E 006°16'16 3.0
2017-Oct-16 17:38N 53°33' E 005°50'1013.9
2017-Oct-16 16:54N 53°31' E 005°33'613.6
2017-Oct-16 16:29N 53°30' E 005°24'714.1
2017-Oct-16 16:00N 53°28' E 005°14'714.2
2017-Oct-16 15:30N 53°25' E 005°02'713.8
2017-Oct-16 15:00N 53°20' E 004°55'1414.1
2017-Oct-16 14:00N 53°08' E 004°41'714.9
2017-Oct-16 13:30N 53°02' E 004°35'815.4
2017-Oct-16 13:01N 52°54' E 004°33'714.8
2017-Oct-16 12:30N 52°47' E 004°32'714.3
2017-Oct-16 12:00N 52°40' E 004°30'713.9
2017-Oct-16 11:30N 52°33' E 004°28'713.7
2017-Oct-16 11:00N 52°26' E 004°26'713.6
2017-Oct-16 10:30N 52°20' E 004°22'713.4
2017-Oct-16 10:00N 52°13' E 004°18'611.1
2017-Oct-16 09:30N 52°09' E 004°13'3 6.5
2017-Oct-16 09:00N 52°06' E 004°15'0 0.6
2017-Oct-16 08:29N 52°06' E 004°16'0 0.0
2017-Oct-16 07:59N 52°06' E 004°16'0 0.0
2017-Oct-16 07:29N 52°06' E 004°16'0 0.0
2017-Oct-16 06:59N 52°06' E 004°16'0 0.0
2017-Oct-16 06:29N 52°06' E 004°16'0 0.0
2017-Oct-16 06:00N 52°06' E 004°16'0 0.0
2017-Oct-16 05:30N 52°06' E 004°16'0 0.0
2017-Oct-16 05:00N 52°06' E 004°16'0 0.0
2017-Oct-16 04:30N 52°06' E 004°16'0 0.0
2017-Oct-16 04:00N 52°06' E 004°16'0 0.0
2017-Oct-16 03:30N 52°06' E 004°16'0 0.0
2017-Oct-16 03:00N 52°06' E 004°16'0 0.0
2017-Oct-16 02:30N 52°06' E 004°16'0 0.0
2017-Oct-16 02:00N 52°06' E 004°16'0 0.0
2017-Oct-16 01:30N 52°06' E 004°16'0 0.0
2017-Oct-16 01:00N 52°06' E 004°16'0 0.0
2017-Oct-16 00:30N 52°06' E 004°16'0 0.0
2017-Oct-16 00:00N 52°06' E 004°16'0 0.0
2017-Oct-15 23:30N 52°06' E 004°16'0 0.0
2017-Oct-15 23:00N 52°06' E 004°16'0 0.0
2017-Oct-15 22:31N 52°06' E 004°16'0 0.0
2017-Oct-15 22:00N 52°06' E 004°16'0 0.0
2017-Oct-15 21:30N 52°06' E 004°16'0 0.0
2017-Oct-15 21:00N 52°06' E 004°16'0 0.0
2017-Oct-15 20:30N 52°06' E 004°16'0 0.0
2017-Oct-15 20:00N 52°06' E 004°16'0 0.0
2017-Oct-15 19:30N 52°06' E 004°16'0 0.0
2017-Oct-15 19:01N 52°06' E 004°16'0 0.0
2017-Oct-15 18:30N 52°06' E 004°16'0 0.0
2017-Oct-15 18:00N 52°06' E 004°16'0 0.0
2017-Oct-15 17:30N 52°06' E 004°16'0 0.0
2017-Oct-15 17:00N 52°06' E 004°16'0 0.0
2017-Oct-15 16:30N 52°06' E 004°16'0 0.0
2017-Oct-15 16:00N 52°06' E 004°16'0 0.0
2017-Oct-15 15:30N 52°06' E 004°16'0 0.0
2017-Oct-15 15:00N 52°06' E 004°16'0 0.0
2017-Oct-15 14:00N 52°06' E 004°16'0 0.0
2017-Oct-15 13:30N 52°06' E 004°16'0 0.0
2017-Oct-15 13:00N 52°06' E 004°16'0 0.0
2017-Oct-15 12:30N 52°06' E 004°16'0 0.0
2017-Oct-15 12:00N 52°06' E 004°16'0 0.0
2017-Oct-15 11:30N 52°06' E 004°16'0 0.0
2017-Oct-15 11:00N 52°06' E 004°16'0 0.0
2017-Oct-15 10:30N 52°06' E 004°16'0 0.0
2017-Oct-15 10:01N 52°06' E 004°16'0 0.0
2017-Oct-15 09:30N 52°06' E 004°16'0 0.0
2017-Oct-15 09:00N 52°06' E 004°16'0 0.0
2017-Oct-15 08:30N 52°06' E 004°16'0 0.0
2017-Oct-15 08:00N 52°06' E 004°16'0 0.0
2017-Oct-15 07:30N 52°06' E 004°16'0 0.0
2017-Oct-15 07:00N 52°06' E 004°16'0 0.0
2017-Oct-15 06:30N 52°06' E 004°16'0 0.0
2017-Oct-15 06:00N 52°06' E 004°16'0 0.0
2017-Oct-15 05:30N 52°06' E 004°16'0 0.0
2017-Oct-15 05:00N 52°06' E 004°16'0 0.0
2017-Oct-15 04:30N 52°06' E 004°16'0 0.0
2017-Oct-15 04:00N 52°06' E 004°16'0 0.0
2017-Oct-15 03:31N 52°06' E 004°16'0 0.0
2017-Oct-15 03:00N 52°06' E 004°16'0 0.0
2017-Oct-15 02:30N 52°06' E 004°16'0 0.0
2017-Oct-15 02:00N 52°06' E 004°16'0 0.0
2017-Oct-15 01:30N 52°06' E 004°16'0 0.0
2017-Oct-15 01:00N 52°06' E 004°16'0 0.0
2017-Oct-15 00:30N 52°06' E 004°16'0 0.0
2017-Oct-15 00:00N 52°06' E 004°16'0 0.0
2017-Oct-14 23:30N 52°06' E 004°16'0 0.0
2017-Oct-14 23:00N 52°06' E 004°16'0 0.0
2017-Oct-14 22:30N 52°06' E 004°16'0 0.0
2017-Oct-14 22:00N 52°06' E 004°16'0 0.0
2017-Oct-14 21:30N 52°06' E 004°16'0 0.0
2017-Oct-14 21:00N 52°06' E 004°16'0 0.0
2017-Oct-14 20:30N 52°06' E 004°16'0 0.0
2017-Oct-14 20:00N 52°06' E 004°16'0 0.0
2017-Oct-14 19:30N 52°06' E 004°16'0 0.0
2017-Oct-14 19:00N 52°06' E 004°16'0 0.0
2017-Oct-14 18:30N 52°06' E 004°16'0 0.0
2017-Oct-14 18:00N 52°06' E 004°16'0 0.0
2017-Oct-14 17:30N 52°06' E 004°16'0 0.0
2017-Oct-14 17:00N 52°06' E 004°16'0 0.0
2017-Oct-14 16:30N 52°06' E 004°16'0 0.0
2017-Oct-14 16:00N 52°06' E 004°16'0 0.0
2017-Oct-14 15:30N 52°06' E 004°16'0 0.0
2017-Oct-14 15:00N 52°06' E 004°16'0 0.0
2017-Oct-14 14:30N 52°06' E 004°16'0 0.0
2017-Oct-14 14:00N 52°06' E 004°16'0 0.0
2017-Oct-14 13:30N 52°06' E 004°16'0 0.0
2017-Oct-14 13:00N 52°06' E 004°16'0 0.0
2017-Oct-14 12:30N 52°06' E 004°16'0 0.0
2017-Oct-14 12:00N 52°06' E 004°16'0 0.0
2017-Oct-14 11:30N 52°06' E 004°16'0 0.0
2017-Oct-14 11:00N 52°06' E 004°16'0 0.0
2017-Oct-14 10:30N 52°06' E 004°16'0 0.0
2017-Oct-14 10:00N 52°06' E 004°16'0 0.0
2017-Oct-14 09:30N 52°06' E 004°16'0 0.0
2017-Oct-14 09:00N 52°06' E 004°16'0 0.0
2017-Oct-14 08:30N 52°06' E 004°16'0 0.0
2017-Oct-14 08:00N 52°06' E 004°16'0 0.0
2017-Oct-14 07:30N 52°06' E 004°16'0 0.0
2017-Oct-14 07:00N 52°06' E 004°16'0 0.0
2017-Oct-14 06:30N 52°06' E 004°16'0 0.0
2017-Oct-14 06:00N 52°06' E 004°16'0 0.0
2017-Oct-14 05:30N 52°06' E 004°16'0 0.0
2017-Oct-14 05:00N 52°06' E 004°16'0 0.0
2017-Oct-14 04:31N 52°06' E 004°16'0 0.0
2017-Oct-14 04:00N 52°06' E 004°16'0 0.0
2017-Oct-14 03:30N 52°06' E 004°16'0 0.0
2017-Oct-14 03:00N 52°06' E 004°16'0 0.0
2017-Oct-14 02:30N 52°06' E 004°16'0 0.0
2017-Oct-14 02:00N 52°06' E 004°16'0 0.0
2017-Oct-14 01:30N 52°06' E 004°16'0 0.0
2017-Oct-14 01:00N 52°06' E 004°16'0 0.0
2017-Oct-14 00:30N 52°06' E 004°16'0 0.0
2017-Oct-14 00:00N 52°06' E 004°16'0 0.0
2017-Oct-13 23:30N 52°06' E 004°16'0 0.0
2017-Oct-13 23:00N 52°06' E 004°16'0 0.0
2017-Oct-13 22:30N 52°06' E 004°16'0 0.0
2017-Oct-13 22:00N 52°06' E 004°16'0 0.0
2017-Oct-13 21:30N 52°06' E 004°16'0 0.0
2017-Oct-13 21:00N 52°06' E 004°16'0 0.0
2017-Oct-13 20:30N 52°06' E 004°16'0 0.0
2017-Oct-13 20:00N 52°06' E 004°16'0 0.0
2017-Oct-13 19:30N 52°06' E 004°16'0 0.0
2017-Oct-13 19:00N 52°06' E 004°16'0 0.0
2017-Oct-13 18:30N 52°06' E 004°16'0 0.0
2017-Oct-13 18:00N 52°06' E 004°16'0 0.0
2017-Oct-13 17:30N 52°06' E 004°16'0 0.0
2017-Oct-13 17:00N 52°06' E 004°16'0 0.0
2017-Oct-13 16:30N 52°06' E 004°16'0 0.0
2017-Oct-13 16:00N 52°06' E 004°16'0 0.0
2017-Oct-13 15:30N 52°06' E 004°16'0 0.0
2017-Oct-13 15:00N 52°06' E 004°16'0 0.0
2017-Oct-13 14:30N 52°06' E 004°16'0 0.0
2017-Oct-13 14:00N 52°06' E 004°16'0 0.0
2017-Oct-13 13:30N 52°06' E 004°16'0 0.0
2017-Oct-13 13:00N 52°06' E 004°16'0 0.0
2017-Oct-13 12:30N 52°06' E 004°16'0 0.0
2017-Oct-13 12:00N 52°06' E 004°16'0 0.0
2017-Oct-13 11:30N 52°06' E 004°16'0 0.0
2017-Oct-13 11:00N 52°06' E 004°16'0 0.0
2017-Oct-13 10:30N 52°06' E 004°16'0 0.0
2017-Oct-13 10:00N 52°06' E 004°16'0 0.1
2017-Oct-13 09:30N 52°06' E 004°16'4 8.5
2017-Oct-13 09:00N 52°09' E 004°10'1 1.3
2017-Oct-13 08:30N 52°08' E 004°10'1 1.5
2017-Oct-13 08:00N 52°09' E 004°10'0 0.6
2017-Oct-13 07:31N 52°09' E 004°10'3 6.5
2017-Oct-13 07:01N 52°12' E 004°12'510.7
2017-Oct-13 06:30N 52°18' E 004°15'510.9
2017-Oct-13 06:00N 52°23' E 004°18'510.6
2017-Oct-13 05:30N 52°28' E 004°20'1 2.1
2017-Oct-13 05:00N 52°29' E 004°20'2 1.9
2017-Oct-13 03:59N 52°31' E 004°21'0 0.0
2017-Oct-13 03:29N 52°31' E 004°21'0 0.0
2017-Oct-13 02:59N 52°31' E 004°21'0 0.0
2017-Oct-13 02:29N 52°31' E 004°21'0 0.0
2017-Oct-13 01:59N 52°31' E 004°21'0 0.0
2017-Oct-13 01:29N 52°31' E 004°21'0 0.0
2017-Oct-13 00:59N 52°31' E 004°21'0 0.0
2017-Oct-13 00:29N 52°31' E 004°21'0 0.0
2017-Oct-12 23:59N 52°31' E 004°21'0 0.0
2017-Oct-12 23:29N 52°31' E 004°21'0 0.0
2017-Oct-12 22:59N 52°31' E 004°21'0 0.0
2017-Oct-12 22:29N 52°31' E 004°21'0 0.0
2017-Oct-12 21:59N 52°31' E 004°21'0 0.0
2017-Oct-12 21:29N 52°31' E 004°21'0 0.0
2017-Oct-12 20:59N 52°31' E 004°21'0 0.0
2017-Oct-12 20:29N 52°31' E 004°21'0 0.0
2017-Oct-12 19:59N 52°31' E 004°21'2 4.2
2017-Oct-12 19:30N 52°30' E 004°24'4 7.8
2017-Oct-12 19:01N 52°28' E 004°30'0 0.2
2017-Oct-12 18:30N 52°28' E 004°30'2 3.6
2017-Oct-12 18:00N 52°29' E 004°28'1 1.5
2017-Oct-12 17:30N 52°28' E 004°28'0 0.3
2017-Oct-12 17:00N 52°28' E 004°29'3 5.5
2017-Oct-12 16:30N 52°28' E 004°33'1 2.5
2017-Oct-12 16:00N 52°28' E 004°31'2 3.0
2017-Oct-12 15:31N 52°28' E 004°29'1 2.9
2017-Oct-12 15:01N 52°28' E 004°31'1 2.2
2017-Oct-12 14:30N 52°28' E 004°29'1 1.8
2017-Oct-12 14:01N 52°28' E 004°31'1 1.3
2017-Oct-12 13:30N 52°28' E 004°30'0 0.9
2017-Oct-12 13:00N 52°28' E 004°30'0 0.5
2017-Oct-12 12:31N 52°28' E 004°30'0 0.3
2017-Oct-12 12:00N 52°28' E 004°30'0 0.4
2017-Oct-12 11:30N 52°28' E 004°30'0 0.6
2017-Oct-12 11:01N 52°28' E 004°30'1 2.7
2017-Oct-12 10:31N 52°28' E 004°28'3 5.3
2017-Oct-12 10:00N 52°29' E 004°24'3 5.1
2017-Oct-12 09:31N 52°29' E 004°20'3 6.4
2017-Oct-12 09:00N 52°28' E 004°25'2 3.5
2017-Oct-12 08:31N 52°27' E 004°27'1 2.2
2017-Oct-12 08:01N 52°26' E 004°27'510.8
2017-Oct-12 07:31N 52°21' E 004°25'611.9
2017-Oct-12 07:01N 52°15' E 004°21'612.1
2017-Oct-12 06:31N 52°10' E 004°16'4 8.4
2017-Oct-12 06:01N 52°06' E 004°16'0 0.0
2017-Oct-12 05:28N 52°06' E 004°16'0 0.0
2017-Oct-12 04:58N 52°06' E 004°16'0 0.0
2017-Oct-12 04:28N 52°06' E 004°16'0 0.0
2017-Oct-12 03:58N 52°06' E 004°16'0 0.0
2017-Oct-12 03:28N 52°06' E 004°16'0 0.0
2017-Oct-12 02:58N 52°06' E 004°16'0 0.0
2017-Oct-12 02:28N 52°06' E 004°16'0 0.0
2017-Oct-12 01:55N 52°06' E 004°16'0 0.0
2017-Oct-12 01:28N 52°06' E 004°16'0 0.0
2017-Oct-12 00:58N 52°06' E 004°16'0 0.0
2017-Oct-12 00:28N 52°06' E 004°16'0 0.0
2017-Oct-11 23:58N 52°06' E 004°16'0 0.0
2017-Oct-11 23:25N 52°06' E 004°16'0 0.0
2017-Oct-11 22:58N 52°06' E 004°16'0 0.0
2017-Oct-11 22:22N 52°06' E 004°16'0 0.0
2017-Oct-11 21:58N 52°06' E 004°16'0 0.0
2017-Oct-11 21:28N 52°06' E 004°16'0 0.0
2017-Oct-11 20:58N 52°06' E 004°16'0 0.0
2017-Oct-11 20:28N 52°06' E 004°16'0 0.0
2017-Oct-11 19:58N 52°06' E 004°16'0 0.0
2017-Oct-11 19:25N 52°06' E 004°16'0 0.0
2017-Oct-11 18:58N 52°06' E 004°16'0 0.0
2017-Oct-11 18:28N 52°06' E 004°16'0 0.0
2017-Oct-11 17:58N 52°06' E 004°16'0 0.0
2017-Oct-11 17:28N 52°06' E 004°16'0 0.0
2017-Oct-11 16:58N 52°06' E 004°16'12 0.7
2017-Oct-11 00:01N 52°01' E 003°57'4 7.7
2017-Oct-10 23:31N 51°59' E 004°03'3 6.8
2017-Oct-10 23:00N 52°01' E 003°58'2 4.5
2017-Oct-10 22:30N 51°60' E 004°01'1 2.2
2017-Oct-10 22:00N 52°00' E 003°60'1 1.7
2017-Oct-10 21:30N 51°60' E 004°01'1 1.8
2017-Oct-10 21:00N 52°00' E 003°60'1 1.4
2017-Oct-10 20:30N 52°00' E 004°01'0 0.9
2017-Oct-10 20:00N 51°60' E 004°01'2 3.1
2017-Oct-10 19:30N 52°01' E 003°59'1 2.9
2017-Oct-10 19:00N 51°60' E 004°01'1 2.8
2017-Oct-10 18:30N 52°01' E 003°59'2 3.2
2017-Oct-10 18:00N 51°60' E 004°01'4 7.3
2017-Oct-10 17:30N 52°01' E 003°56'3 5.2
2017-Oct-10 17:00N 52°00' E 003°60'1 1.7
2017-Oct-10 16:30N 51°60' E 004°01'1 2.7
2017-Oct-10 16:01N 52°01' E 003°59'2 3.9
2017-Oct-10 15:30N 51°60' E 004°02'1 1.9
2017-Oct-10 15:00N 51°60' E 004°00'1 0.7
2017-Oct-10 14:00N 51°60' E 004°01'2 3.8
2017-Oct-10 13:30N 52°01' E 003°59'2 3.6
2017-Oct-10 13:00N 51°60' E 004°01'2 3.8
2017-Oct-10 12:30N 52°01' E 003°59'2 3.8
2017-Oct-10 12:00N 51°60' E 004°01'2 4.3
2017-Oct-10 11:30N 52°01' E 003°58'3 5.2
2017-Oct-10 11:00N 51°59' E 004°02'3 6.1
2017-Oct-10 10:31N 52°01' E 003°57'4 7.1
2017-Oct-10 10:00N 51°59' E 004°03'4 7.3
2017-Oct-10 09:30N 52°01' E 003°57'4 7.0
2017-Oct-10 09:01N 51°59' E 004°02'3 6.8
2017-Oct-10 08:31N 52°01' E 003°57'3 6.7
2017-Oct-10 08:00N 52°01' E 004°03'511.0
2017-Oct-10 07:30N 52°06' E 004°08'4 8.8
2017-Oct-10 07:01N 52°09' E 004°13'1 2.1
2017-Oct-10 06:30N 52°08' E 004°13'3 5.4
2017-Oct-10 05:59N 52°06' E 004°16'0 0.0
2017-Oct-10 05:26N 52°06' E 004°16'0 0.0
2017-Oct-10 04:59N 52°06' E 004°16'0 0.0
2017-Oct-10 04:26N 52°06' E 004°16'0 0.0
2017-Oct-10 03:59N 52°06' E 004°16'0 0.0
2017-Oct-10 03:29N 52°06' E 004°16'0 0.0
2017-Oct-10 02:59N 52°06' E 004°16'0 0.0
2017-Oct-10 02:29N 52°06' E 004°16'0 0.0
2017-Oct-10 01:59N 52°06' E 004°16'0 0.0
2017-Oct-10 01:29N 52°06' E 004°16'0 0.0
2017-Oct-10 00:59N 52°06' E 004°16'0 0.0
2017-Oct-10 00:29N 52°06' E 004°16'0 0.0
2017-Oct-09 23:59N 52°06' E 004°16'0 0.0
2017-Oct-09 23:29N 52°06' E 004°16'0 0.0
2017-Oct-09 22:59N 52°06' E 004°16'0 0.0
2017-Oct-09 22:29N 52°06' E 004°16'0 0.0
2017-Oct-09 21:59N 52°06' E 004°16'0 0.0
2017-Oct-09 21:26N 52°06' E 004°16'0 0.0
2017-Oct-09 20:56N 52°06' E 004°16'0 0.0
2017-Oct-09 20:29N 52°06' E 004°16'0 0.0
2017-Oct-09 19:56N 52°06' E 004°16'0 0.0
2017-Oct-09 19:29N 52°06' E 004°16'0 0.0
2017-Oct-09 18:56N 52°06' E 004°16'0 0.0
2017-Oct-09 18:26N 52°06' E 004°16'0 0.0
2017-Oct-09 17:59N 52°06' E 004°16'0 0.0
2017-Oct-09 17:29N 52°06' E 004°16'0 0.0
2017-Oct-09 16:59N 52°06' E 004°16'0 0.0
2017-Oct-09 16:29N 52°06' E 004°16'0 0.0
2017-Oct-09 15:59N 52°06' E 004°16'0 0.0
2017-Oct-09 15:29N 52°06' E 004°16'0 0.0
2017-Oct-09 14:59N 52°06' E 004°16'0 0.0
2017-Oct-09 14:29N 52°06' E 004°16'0 0.0
2017-Oct-09 13:59N 52°06' E 004°16'0 0.0
2017-Oct-09 13:26N 52°06' E 004°16'0 0.0
2017-Oct-09 12:59N 52°06' E 004°16'0 0.0
2017-Oct-09 12:26N 52°06' E 004°16'1 2.7
2017-Oct-09 12:01N 52°07' E 004°14'611.1
2017-Oct-09 11:30N 52°05' E 004°05'510.8
2017-Oct-09 11:00N 52°03' E 003°57'3 6.6
2017-Oct-09 10:30N 52°00' E 004°01'613.0
2017-Oct-09 10:01N 51°57' E 004°10'713.4
2017-Oct-09 09:30N 51°54' E 004°19'2 4.3
2017-Oct-09 08:59N 51°54' E 004°23'0 0.0
2017-Oct-09 08:29N 51°54' E 004°23'0 0.0
2017-Oct-09 07:59N 51°54' E 004°23'0 0.0
2017-Oct-09 07:29N 51°54' E 004°23'0 0.0
2017-Oct-09 06:59N 51°54' E 004°23'0 0.0
2017-Oct-09 06:29N 51°54' E 004°23'0 0.0
2017-Oct-09 05:59N 51°54' E 004°23'0 0.0
2017-Oct-09 05:29N 51°54' E 004°23'0 0.0
2017-Oct-09 04:59N 51°54' E 004°23'0 0.0
2017-Oct-09 04:29N 51°54' E 004°23'0 0.0
2017-Oct-09 03:59N 51°54' E 004°23'0 0.0
2017-Oct-09 03:29N 51°54' E 004°23'0 0.0
2017-Oct-09 02:59N 51°54' E 004°23'0 0.0
2017-Oct-09 02:29N 51°54' E 004°23'0 0.0
2017-Oct-09 01:59N 51°54' E 004°23'0 0.0
2017-Oct-09 01:29N 51°54' E 004°23'0 0.0
2017-Oct-09 00:59N 51°54' E 004°23'0 0.0
2017-Oct-09 00:29N 51°54' E 004°23'0 0.0
2017-Oct-08 23:59N 51°54' E 004°23'0 0.0
2017-Oct-08 23:29N 51°54' E 004°23'0 0.0
2017-Oct-08 22:59N 51°54' E 004°23'0 0.0
2017-Oct-08 22:29N 51°54' E 004°23'0 0.0
2017-Oct-08 21:59N 51°54' E 004°23'0 0.0
2017-Oct-08 21:29N 51°54' E 004°23'0 0.0
2017-Oct-08 20:56N 51°54' E 004°23'0 0.0
2017-Oct-08 20:29N 51°54' E 004°23'0 0.0
2017-Oct-08 19:59N 51°54' E 004°23'0 0.0
2017-Oct-08 19:29N 51°54' E 004°23'0 0.0
2017-Oct-08 18:59N 51°54' E 004°23'0 0.0
2017-Oct-08 18:29N 51°54' E 004°23'0 0.0
2017-Oct-08 17:59N 51°54' E 004°23'0 0.0
2017-Oct-08 17:29N 51°54' E 004°23'0 0.0
2017-Oct-08 16:59N 51°54' E 004°23'0 0.0
2017-Oct-08 16:29N 51°54' E 004°23'0 0.0
2017-Oct-08 15:59N 51°54' E 004°23'0 0.0
2017-Oct-08 15:29N 51°54' E 004°23'0 0.0
2017-Oct-08 14:59N 51°54' E 004°23'0 0.0
2017-Oct-08 14:29N 51°54' E 004°23'0 0.0
2017-Oct-08 13:59N 51°54' E 004°23'0 0.0
2017-Oct-08 13:29N 51°54' E 004°23'0 0.0
2017-Oct-08 12:59N 51°54' E 004°23'0 0.0
2017-Oct-08 12:29N 51°54' E 004°23'0 0.0
2017-Oct-08 11:59N 51°54' E 004°23'0 0.0
2017-Oct-08 11:29N 51°54' E 004°23'0 0.0
2017-Oct-08 10:59N 51°54' E 004°23'0 0.0
2017-Oct-08 10:29N 51°54' E 004°23'0 0.0
2017-Oct-08 09:59N 51°54' E 004°23'0 0.0
2017-Oct-08 09:29N 51°54' E 004°23'0 0.0
2017-Oct-08 08:59N 51°54' E 004°23'0 0.0
2017-Oct-08 08:29N 51°54' E 004°23'0 0.0
2017-Oct-08 07:59N 51°54' E 004°23'0 0.0
2017-Oct-08 07:29N 51°54' E 004°23'0 0.0
2017-Oct-08 06:59N 51°54' E 004°23'0 0.0
2017-Oct-08 06:29N 51°54' E 004°23'0 0.0
2017-Oct-08 05:59N 51°54' E 004°23'0 0.0
2017-Oct-08 05:29N 51°54' E 004°23'0 0.0
2017-Oct-08 04:59N 51°54' E 004°23'0 0.0
2017-Oct-08 04:29N 51°54' E 004°23'0 0.0
2017-Oct-08 03:59N 51°54' E 004°23'0 0.0
2017-Oct-08 03:29N 51°54' E 004°23'0 0.0
2017-Oct-08 02:59N 51°54' E 004°23'0 0.0
2017-Oct-08 02:29N 51°54' E 004°23'0 0.0
2017-Oct-08 01:59N 51°54' E 004°23'0 0.0
2017-Oct-08 01:29N 51°54' E 004°23'0 0.0
2017-Oct-08 00:59N 51°54' E 004°23'0 0.0
2017-Oct-08 00:29N 51°54' E 004°23'0 0.0
2017-Oct-07 23:59N 51°54' E 004°23'0 0.0
2017-Oct-07 23:29N 51°54' E 004°23'0 0.0
2017-Oct-07 22:59N 51°54' E 004°23'0 0.0
2017-Oct-07 22:29N 51°54' E 004°23'0 0.0
2017-Oct-07 21:59N 51°54' E 004°23'0 0.0
2017-Oct-07 21:29N 51°54' E 004°23'0 0.0
2017-Oct-07 20:56N 51°54' E 004°23'0 0.0
2017-Oct-07 20:29N 51°54' E 004°23'0 0.0
2017-Oct-07 19:59N 51°54' E 004°23'0 0.0
2017-Oct-07 19:29N 51°54' E 004°23'0 0.0
2017-Oct-07 18:59N 51°54' E 004°23'0 0.0
2017-Oct-07 18:29N 51°54' E 004°23'0 0.0
2017-Oct-07 17:59N 51°54' E 004°23'0 0.0
2017-Oct-07 17:29N 51°54' E 004°23'0 0.0
2017-Oct-07 16:59N 51°54' E 004°23'0 0.0
2017-Oct-07 16:29N 51°54' E 004°23'0 0.0
2017-Oct-07 15:59N 51°54' E 004°23'0 0.0
2017-Oct-07 15:29N 51°54' E 004°23'0 0.0
2017-Oct-07 14:59N 51°54' E 004°23'0 0.0
2017-Oct-07 14:26N 51°54' E 004°23'0 0.0
2017-Oct-07 13:59N 51°54' E 004°23'0 0.0
2017-Oct-07 13:29N 51°54' E 004°23'0 0.0
2017-Oct-07 12:59N 51°54' E 004°23'0 0.0
2017-Oct-07 12:29N 51°54' E 004°23'0 0.0
2017-Oct-07 11:59N 51°54' E 004°23'0 0.0
2017-Oct-07 11:26N 51°54' E 004°23'0 0.0
2017-Oct-07 10:59N 51°54' E 004°23'0 0.0
2017-Oct-07 10:29N 51°54' E 004°23'0 0.0
2017-Oct-07 09:59N 51°54' E 004°23'0 0.0
2017-Oct-07 09:29N 51°54' E 004°23'0 0.0
2017-Oct-07 08:59N 51°54' E 004°23'0 0.0
2017-Oct-07 08:29N 51°54' E 004°23'0 0.0
2017-Oct-07 07:59N 51°54' E 004°23'0 0.0
2017-Oct-07 07:29N 51°54' E 004°23'0 0.0
2017-Oct-07 06:59N 51°54' E 004°23'0 0.0
2017-Oct-07 06:29N 51°54' E 004°23'0 0.0
2017-Oct-07 05:59N 51°54' E 004°23'0 0.0
2017-Oct-07 05:29N 51°54' E 004°23'0 0.0
2017-Oct-07 04:59N 51°54' E 004°23'0 0.0
2017-Oct-07 04:29N 51°54' E 004°23'0 0.0
2017-Oct-07 03:59N 51°54' E 004°23'0 0.0
2017-Oct-07 03:29N 51°54' E 004°23'  

Dump ship's entire track history